Flag for U.S.A. Weather past 2 weeks in Lexington, Virginia, U.S.A.

Now
25 °F

Scattered clouds.


Feels Like: 12 °F
Forecast: 19 / 41 °F
Wind: 17 mph from South

Location: Hot Springs / Ingalls

Current Time: Jan 29, 2015 at 8:05:50 AM

Latest Report: Jan 29, 2015 at 7:35 AM


Visibility: 10 mi

Pressure: 30.07 "Hg

Humidity: 51%

Dew point: 10 °F

Location of LexingtonLocation

Historic Weather in Lexington — Graph

°F

Lexington temperature yesterday

Maximum temperature yesterday: 29 °F (at 3:15 PM)
Minimum temperature yesterday: 11 °F (at 2:15 AM)
Average temperature yesterday: 19 °F

Past Weeks' High & Low Weather Summary

 TemperatureHumidityPressure
High47 °F (Jan 20, 12:55 PM)100% (Jan 14, 6:15 AM)30.24 "Hg (Jan 14, 6:15 AM)
Low11 °F (Jan 27, 7:15 AM)29% (Jan 15, 11:15 AM)29.43 "Hg (Jan 24, 12:55 PM)
Average29 °F82%29.88 "Hg
* Reported Jan 14 6:15 AM — Jan 29 6:55 AM, Lexington, Weather by CustomWeather, © 2014

Note: Actual official high and low records may vary slightly from our data, if they occured in-between our weather recording intervals... More about our weather records

Advertising

Lexington weather history for previous 24 hours

 ConditionsComfort  
Time TempWeatherWind HumidityBarometerVisibility
6:55 AM
Jan 29
25 °FPassing clouds.15 mph50%30.07 "Hg10 mi
6:35 AM25 °FPassing clouds.15 mph47%30.08 "Hg10 mi
6:15 AM25 °FPassing clouds.14 mph47%30.09 "Hg10 mi
5:55 AM25 °FClear.13 mph47%30.10 "Hg10 mi
5:35 AM25 °FClear.13 mph48%30.10 "Hg10 mi
5:15 AM25 °FClear.12 mph48%30.11 "Hg10 mi
4:55 AM27 °FClear.13 mph43%30.10 "Hg10 mi
4:35 AM29 °FClear.13 mph33%30.11 "Hg10 mi
4:15 AM28 °FClear.12 mph35%30.11 "Hg10 mi
3:55 AM28 °FClear.13 mph35%30.12 "Hg10 mi
3:35 AM28 °FClear.13 mph39%30.12 "Hg10 mi
3:15 AM26 °FClear.12 mph45%30.12 "Hg10 mi
2:55 AM27 °FClear.10 mph44%30.12 "Hg10 mi
2:35 AM26 °FClear.9 mph44%30.13 "Hg10 mi
2:15 AM26 °FClear.7 mph43%30.14 "Hg10 mi
1:55 AM22 °FClear.9 mph52%30.15 "Hg10 mi
1:35 AM24 °FClear.7 mph48%30.15 "Hg10 mi
1:15 AM24 °FClear.7 mph46%30.13 "Hg10 mi
12:55 AM24 °FClear.6 mph44%30.13 "Hg10 mi
12:35 AM25 °FClear.5 mph36%30.13 "Hg10 mi
12:15 AM24 °FClear.5 mph41%30.14 "Hg10 mi
11:55 PM
Jan 28
24 °FClear.3 mph41%30.15 "Hg10 mi
11:35 PM26 °FClear.No wind30%30.15 "Hg10 mi
11:15 PM24 °FClear.No wind41%30.15 "Hg10 mi
10:50 PM23 °FClear.3 mph48%30.14 "Hg10 mi
10:15 PM24 °FClear.3 mph38%30.15 "Hg10 mi
9:55 PM26 °FClear.No wind37%30.15 "Hg10 mi
9:35 PM23 °FClear.5 mph54%30.16 "Hg10 mi
9:15 PM23 °FClear.No wind57%30.16 "Hg10 mi
8:55 PM23 °FClear.6 mph60%30.16 "Hg10 mi
8:15 PM23 °FClear.3 mph61%30.15 "Hg10 mi
7:55 PM21 °FClear.3 mph67%30.15 "Hg10 mi
7:35 PM23 °FClear.3 mph61%30.14 "Hg10 mi
7:15 PM22 °FClear.6 mph63%30.14 "Hg10 mi
6:55 PM23 °FClear.6 mph62%30.13 "Hg10 mi
6:35 PM23 °FClear.9 mph63%30.13 "Hg10 mi
6:15 PM24 °FClear.8 mph60%30.12 "Hg10 mi
5:55 PM25 °FClear.6 mph56%30.12 "Hg10 mi
5:35 PM26 °FSunny.3 mph52%30.11 "Hg10 mi
5:15 PM28 °FSunny.6 mph44%30.11 "Hg10 mi
4:55 PM28 °FSunny.10 mph41%30.10 "Hg10 mi
4:15 PM29 °FSunny.8 mph39%30.09 "Hg10 mi
3:55 PM29 °FSunny.7 mph40%30.09 "Hg10 mi
3:15 PM29 °FSunny.7 mph35%30.08 "Hg10 mi
2:55 PM29 °FSunny.10 mph36%30.07 "Hg10 mi
2:15 PM28 °FSunny.13 mph40%30.06 "Hg10 mi
1:55 PM28 °FSunny.9 mph38%30.06 "Hg10 mi
1:15 PM27 °FSunny.12 mph43%30.06 "Hg10 mi
12:55 PM26 °FSunny.10 mph45%30.06 "Hg10 mi
12:15 PM23 °FSunny.15 mph51%30.07 "Hg10 mi
11:55 AM22 °FSunny.16 mph59%30.08 "Hg10 mi
11:35 AM20 °FSunny.16 mph68%30.08 "Hg10 mi
11:15 AM19 °FSunny.15 mph70%30.08 "Hg10 mi
10:55 AM18 °FSunny.16 mph72%30.07 "Hg10 mi
10:35 AM17 °FSunny.15 mph76%30.07 "Hg10 mi
10:15 AM15 °FSunny.16 mph82%30.07 "Hg10 mi
9:55 AM15 °FSunny.15 mph84%30.06 "Hg10 mi
9:35 AM14 °FSunny.16 mph87%30.04 "Hg10 mi
9:15 AM13 °FSunny.16 mph90%30.03 "Hg10 mi
8:55 AM12 °FScattered clouds.18 mph97%30.03 "Hg10 mi
8:35 AM12 °FSunny.17 mph98%30.02 "Hg10 mi
8:15 AM11 °FSunny.17 mph95%30.01 "Hg10 mi
Weather by CustomWeather, © 2014

See weather overviewHow to use our weather pages